Year,Month,Day,Hour,Minute,Value (Times are PST for windgust in km/hr)
2011,07,09,00,05,1.60
2011,07,09,00,25,1.60
2011,07,09,02,06,1.60
2011,07,09,03,57,1.60
2011,07,09,03,59,1.60
2011,07,09,04,00,1.60
2011,07,09,04,01,1.60
2011,07,09,04,02,1.60
2011,07,09,04,03,3.20
2011,07,09,04,04,1.60
2011,07,09,04,06,1.60
2011,07,09,04,46,1.60
2011,07,09,05,12,1.60
2011,07,09,05,13,1.60
2011,07,09,05,14,1.60
2011,07,09,05,22,1.60
2011,07,09,06,13,1.60
2011,07,09,06,42,1.60
2011,07,09,06,47,1.60
2011,07,09,06,48,1.60
2011,07,09,06,49,1.60
2011,07,09,06,50,1.60
2011,07,09,06,51,3.20
2011,07,09,06,52,1.60
2011,07,09,06,54,1.60
2011,07,09,06,56,1.60
2011,07,09,06,57,1.60
2011,07,09,06,58,1.60
2011,07,09,07,00,1.60
2011,07,09,07,01,3.20
2011,07,09,07,02,3.20
2011,07,09,07,03,1.60
2011,07,09,07,04,1.60
2011,07,09,07,06,1.60
2011,07,09,07,16,1.60
2011,07,09,07,20,1.60
2011,07,09,07,21,1.60
2011,07,09,07,22,1.60
2011,07,09,07,23,1.60
2011,07,09,07,24,1.60
2011,07,09,07,25,1.60
2011,07,09,07,26,1.60
2011,07,09,07,28,1.60
2011,07,09,07,35,1.60
2011,07,09,07,36,1.60
2011,07,09,07,37,1.60
2011,07,09,07,38,1.60
2011,07,09,07,39,1.60
2011,07,09,07,40,1.60
2011,07,09,07,41,1.60
2011,07,09,07,42,3.20
2011,07,09,07,43,3.20
2011,07,09,07,44,1.60
2011,07,09,07,45,1.60
2011,07,09,07,47,1.60
2011,07,09,07,48,1.60
2011,07,09,07,49,1.60
2011,07,09,07,50,1.60
2011,07,09,07,51,1.60
2011,07,09,07,52,1.60
2011,07,09,07,59,1.60
2011,07,09,08,08,1.60
2011,07,09,08,09,1.60
2011,07,09,08,10,1.60
2011,07,09,08,13,1.60
2011,07,09,08,14,1.60
2011,07,09,08,15,1.60
2011,07,09,08,16,1.60
2011,07,09,08,17,1.60
2011,07,09,08,18,1.60
2011,07,09,08,20,1.60
2011,07,09,08,21,1.60
2011,07,09,08,22,1.60
2011,07,09,08,24,1.60
2011,07,09,08,26,3.20
2011,07,09,08,27,3.20
2011,07,09,08,28,1.60
2011,07,09,08,29,3.20
2011,07,09,08,31,1.60
2011,07,09,08,32,1.60
2011,07,09,08,33,1.60
2011,07,09,08,35,1.60
2011,07,09,08,36,1.60
2011,07,09,08,37,1.60
2011,07,09,08,38,1.60
2011,07,09,08,39,1.60
2011,07,09,08,40,1.60
2011,07,09,08,41,1.60
2011,07,09,08,42,1.60
2011,07,09,08,43,8.10
2011,07,09,08,44,9.60
2011,07,09,08,45,3.20
2011,07,09,08,46,1.60
2011,07,09,08,48,4.80
2011,07,09,08,49,3.20
2011,07,09,08,50,3.20
2011,07,09,08,51,3.20
2011,07,09,08,52,6.40
2011,07,09,08,53,6.40
2011,07,09,08,54,8.10
2011,07,09,08,55,6.40
2011,07,09,08,56,6.40
2011,07,09,08,57,3.20
2011,07,09,08,58,1.60
2011,07,09,08,59,4.80
2011,07,09,09,00,1.60
2011,07,09,09,01,4.80
2011,07,09,09,02,3.20
2011,07,09,09,03,3.20
2011,07,09,09,04,1.60
2011,07,09,09,05,1.60
2011,07,09,09,06,1.60
2011,07,09,09,08,1.60
2011,07,09,09,09,4.80
2011,07,09,09,10,6.40
2011,07,09,09,11,1.60
2011,07,09,09,12,3.20
2011,07,09,09,13,1.60
2011,07,09,09,14,1.60
2011,07,09,09,15,4.80
2011,07,09,09,16,4.80
2011,07,09,09,17,4.80
2011,07,09,09,18,8.10
2011,07,09,09,19,6.40
2011,07,09,09,20,6.40
2011,07,09,09,21,8.10
2011,07,09,09,22,6.40
2011,07,09,09,23,6.40
2011,07,09,09,24,3.20
2011,07,09,09,25,6.40
2011,07,09,09,26,6.40
2011,07,09,09,27,8.10
2011,07,09,09,28,6.40
2011,07,09,09,29,6.40
2011,07,09,09,30,3.20
2011,07,09,09,31,1.60
2011,07,09,09,32,4.80
2011,07,09,09,33,1.60
2011,07,09,09,34,1.60
2011,07,09,09,35,3.20
2011,07,09,09,36,4.80
2011,07,09,09,37,3.20
2011,07,09,09,38,1.60
2011,07,09,09,39,3.20
2011,07,09,09,40,8.10
2011,07,09,09,41,1.60
2011,07,09,09,42,1.60
2011,07,09,09,43,6.40
2011,07,09,09,44,3.20
2011,07,09,09,45,4.80
2011,07,09,09,46,3.20
2011,07,09,09,47,4.80
2011,07,09,09,48,4.80
2011,07,09,09,49,4.80
2011,07,09,09,50,4.80
2011,07,09,09,51,6.40
2011,07,09,09,52,4.80
2011,07,09,09,53,4.80
2011,07,09,09,54,1.60
2011,07,09,09,55,6.40
2011,07,09,09,56,6.40
2011,07,09,09,57,6.40
2011,07,09,09,58,3.20
2011,07,09,09,59,9.60
2011,07,09,10,00,14.50
2011,07,09,10,01,8.10
2011,07,09,10,02,11.30
2011,07,09,10,03,8.10
2011,07,09,10,04,6.40
2011,07,09,10,05,4.80
2011,07,09,10,06,6.40
2011,07,09,10,07,14.50
2011,07,09,10,08,8.10
2011,07,09,10,09,8.10
2011,07,09,10,10,9.60
2011,07,09,10,11,8.10
2011,07,09,10,12,4.80
2011,07,09,10,13,4.80
2011,07,09,10,14,9.60
2011,07,09,10,15,8.10
2011,07,09,10,16,6.40
2011,07,09,10,17,11.30
2011,07,09,10,18,8.10
2011,07,09,10,19,3.20
2011,07,09,10,20,9.60
2011,07,09,10,21,9.60
2011,07,09,10,22,6.40
2011,07,09,10,23,11.30
2011,07,09,10,24,8.10
2011,07,09,10,25,14.50
2011,07,09,10,26,11.30
2011,07,09,10,27,9.60
2011,07,09,10,28,6.40
2011,07,09,10,29,4.80
2011,07,09,10,30,6.40
2011,07,09,10,31,4.80
2011,07,09,10,32,4.80
2011,07,09,10,33,1.60
2011,07,09,10,34,1.60
2011,07,09,10,35,1.60
2011,07,09,10,36,4.80
2011,07,09,10,37,4.80
2011,07,09,10,38,4.80
2011,07,09,10,39,3.20
2011,07,09,10,40,1.60
2011,07,09,10,41,3.20
2011,07,09,10,42,8.10
2011,07,09,10,43,8.10
2011,07,09,10,44,1.60
2011,07,09,10,45,6.40
2011,07,09,10,46,4.80
2011,07,09,10,47,8.10
2011,07,09,10,48,11.30
2011,07,09,10,49,3.20
2011,07,09,10,50,1.60
2011,07,09,10,51,1.60
2011,07,09,10,52,4.80
2011,07,09,10,53,6.40
2011,07,09,10,54,4.80
2011,07,09,10,55,1.60
2011,07,09,10,56,1.60
2011,07,09,10,57,3.20
2011,07,09,10,58,6.40
2011,07,09,10,59,17.70
2011,07,09,11,00,16.10
2011,07,09,11,01,8.10
2011,07,09,11,02,9.60
2011,07,09,11,03,8.10
2011,07,09,11,04,9.60
2011,07,09,11,05,14.50
2011,07,09,11,06,8.10
2011,07,09,11,07,9.60
2011,07,09,11,08,4.80
2011,07,09,11,09,8.10
2011,07,09,11,10,8.10
2011,07,09,11,11,8.10
2011,07,09,11,12,8.10
2011,07,09,11,13,12.90
2011,07,09,11,14,11.30
2011,07,09,11,15,11.30
2011,07,09,11,16,8.10
2011,07,09,11,17,8.10
2011,07,09,11,18,6.40
2011,07,09,11,19,9.60
2011,07,09,11,20,6.40
2011,07,09,11,21,16.10
2011,07,09,11,22,11.30
2011,07,09,11,23,16.10
2011,07,09,11,24,20.90
2011,07,09,11,25,17.70
2011,07,09,11,26,9.60
2011,07,09,11,27,12.90
2011,07,09,11,28,8.10
2011,07,09,11,29,8.10
2011,07,09,11,30,8.10
2011,07,09,11,31,11.30
2011,07,09,11,32,11.30
2011,07,09,11,33,6.40
2011,07,09,11,34,6.40
2011,07,09,11,35,6.40
2011,07,09,11,36,9.60
2011,07,09,11,37,11.30
2011,07,09,11,38,12.90
2011,07,09,11,39,9.60
2011,07,09,11,40,8.10
2011,07,09,11,41,6.40
2011,07,09,11,42,6.40
2011,07,09,11,43,4.80
2011,07,09,11,44,3.20
2011,07,09,11,45,4.80
2011,07,09,11,46,4.80
2011,07,09,11,47,8.10
2011,07,09,11,48,4.80
2011,07,09,11,49,8.10
2011,07,09,11,50,4.80
2011,07,09,11,51,9.60
2011,07,09,11,52,4.80
2011,07,09,11,53,9.60
2011,07,09,11,54,6.40
2011,07,09,11,55,6.40
2011,07,09,11,56,4.80
2011,07,09,11,57,4.80
2011,07,09,11,58,8.10
2011,07,09,11,59,11.30
2011,07,09,12,00,6.40
2011,07,09,12,01,6.40
2011,07,09,12,02,4.80
2011,07,09,12,03,8.10
2011,07,09,12,04,6.40
2011,07,09,12,05,8.10
2011,07,09,12,06,4.80
2011,07,09,12,07,6.40
2011,07,09,12,08,6.40
2011,07,09,12,09,9.60
2011,07,09,12,10,11.30
2011,07,09,12,11,9.60
2011,07,09,12,12,4.80
2011,07,09,12,13,4.80
2011,07,09,12,14,4.80
2011,07,09,12,15,8.10
2011,07,09,12,16,9.60
2011,07,09,12,17,16.10
2011,07,09,12,18,1.60
2011,07,09,12,19,14.50
2011,07,09,12,20,6.40
2011,07,09,12,21,8.10
2011,07,09,12,22,16.10
2011,07,09,12,23,11.30
2011,07,09,12,24,11.30
2011,07,09,12,25,3.20
2011,07,09,12,26,9.60
2011,07,09,12,27,6.40
2011,07,09,12,28,14.50
2011,07,09,12,29,8.10
2011,07,09,12,30,9.60
2011,07,09,12,31,9.60
2011,07,09,12,32,16.10
2011,07,09,12,33,17.70
2011,07,09,12,34,9.60
2011,07,09,12,35,6.40
2011,07,09,12,36,4.80
2011,07,09,12,37,11.30
2011,07,09,12,38,6.40
2011,07,09,12,39,11.30
2011,07,09,12,40,4.80
2011,07,09,12,41,6.40
2011,07,09,12,42,8.10
2011,07,09,12,43,4.80
2011,07,09,12,44,16.10
2011,07,09,12,45,8.10
2011,07,09,12,46,6.40
2011,07,09,12,47,9.60
2011,07,09,12,48,4.80
2011,07,09,12,49,4.80
2011,07,09,12,50,4.80
2011,07,09,12,51,11.30
2011,07,09,12,52,17.70
2011,07,09,12,53,11.30
2011,07,09,12,54,11.30
2011,07,09,12,55,8.10
2011,07,09,12,56,4.80
2011,07,09,12,57,9.60
2011,07,09,12,58,11.30
2011,07,09,12,59,16.10
2011,07,09,13,00,6.40
2011,07,09,13,01,4.80
2011,07,09,13,02,4.80
2011,07,09,13,03,6.40
2011,07,09,13,04,4.80
2011,07,09,13,05,16.10
2011,07,09,13,06,14.50
2011,07,09,13,07,11.30
2011,07,09,13,08,16.10
2011,07,09,13,09,17.70
2011,07,09,13,10,11.30
2011,07,09,13,11,14.50
2011,07,09,13,12,16.10
2011,07,09,13,13,8.10
2011,07,09,13,14,3.20
2011,07,09,13,15,6.40
2011,07,09,13,16,8.10
2011,07,09,13,17,4.80
2011,07,09,13,18,6.40
2011,07,09,13,19,9.60
2011,07,09,13,20,6.40
2011,07,09,13,21,6.40
2011,07,09,13,22,6.40
2011,07,09,13,23,3.20
2011,07,09,13,24,3.20
2011,07,09,13,25,11.30
2011,07,09,13,26,14.50
2011,07,09,13,27,16.10
2011,07,09,13,28,9.60
2011,07,09,13,29,11.30
2011,07,09,13,30,8.10
2011,07,09,13,31,4.80
2011,07,09,13,32,3.20
2011,07,09,13,33,9.60
2011,07,09,13,34,6.40
2011,07,09,13,35,11.30
2011,07,09,13,36,16.10
2011,07,09,13,37,14.50
2011,07,09,13,38,14.50
2011,07,09,13,39,14.50
2011,07,09,13,40,8.10
2011,07,09,13,41,4.80
2011,07,09,13,42,8.10
2011,07,09,13,43,6.40
2011,07,09,13,44,8.10
2011,07,09,13,45,11.30
2011,07,09,13,46,17.70
2011,07,09,13,47,16.10
2011,07,09,13,48,11.30
2011,07,09,13,49,14.50
2011,07,09,13,50,4.80
2011,07,09,13,51,8.10
2011,07,09,13,52,11.30
2011,07,09,13,53,6.40
2011,07,09,13,54,9.60
2011,07,09,13,55,4.80
2011,07,09,13,56,17.70
2011,07,09,13,57,16.10
2011,07,09,13,58,12.90
2011,07,09,13,59,9.60
2011,07,09,14,00,14.50
2011,07,09,14,01,12.90
2011,07,09,14,02,9.60
2011,07,09,14,03,9.60
2011,07,09,14,04,11.30
2011,07,09,14,05,8.10
2011,07,09,14,06,8.10
2011,07,09,14,07,8.10
2011,07,09,14,08,6.40
2011,07,09,14,09,4.80
2011,07,09,14,10,8.10
2011,07,09,14,11,4.80
2011,07,09,14,12,9.60
2011,07,09,14,13,11.30
2011,07,09,14,14,12.90
2011,07,09,14,15,9.60
2011,07,09,14,16,9.60
2011,07,09,14,17,11.30
2011,07,09,14,18,9.60
2011,07,09,14,19,14.50
2011,07,09,14,20,11.30
2011,07,09,14,21,6.40
2011,07,09,14,22,8.10
2011,07,09,14,23,6.40
2011,07,09,14,24,4.80
2011,07,09,14,25,9.60
2011,07,09,14,26,16.10
2011,07,09,14,27,14.50
2011,07,09,14,28,11.30
2011,07,09,14,29,6.40
2011,07,09,14,30,17.70
2011,07,09,14,31,11.30
2011,07,09,14,32,11.30
2011,07,09,14,33,9.60
2011,07,09,14,34,9.60
2011,07,09,14,35,6.40
2011,07,09,14,36,6.40
2011,07,09,14,37,4.80
2011,07,09,14,38,6.40
2011,07,09,14,39,11.30
2011,07,09,14,40,6.40
2011,07,09,14,41,9.60
2011,07,09,14,42,4.80
2011,07,09,14,43,9.60
2011,07,09,14,44,6.40
2011,07,09,14,45,6.40
2011,07,09,14,46,11.30
2011,07,09,14,47,6.40
2011,07,09,14,48,9.60
2011,07,09,14,49,8.10
2011,07,09,14,50,9.60
2011,07,09,14,51,8.10
2011,07,09,14,52,3.20
2011,07,09,14,53,6.40
2011,07,09,14,54,8.10
2011,07,09,14,55,11.30
2011,07,09,14,56,4.80
2011,07,09,14,57,8.10
2011,07,09,14,58,8.10
2011,07,09,14,59,4.80
2011,07,09,15,00,6.40
2011,07,09,15,01,6.40
2011,07,09,15,02,9.60
2011,07,09,15,03,9.60
2011,07,09,15,04,8.10
2011,07,09,15,05,3.20
2011,07,09,15,06,6.40
2011,07,09,15,07,9.60
2011,07,09,15,08,3.20
2011,07,09,15,09,3.20
2011,07,09,15,10,1.60
2011,07,09,15,11,9.60
2011,07,09,15,12,8.10
2011,07,09,15,13,4.80
2011,07,09,15,14,11.30
2011,07,09,15,15,8.10
2011,07,09,15,16,9.60
2011,07,09,15,17,8.10
2011,07,09,15,18,11.30
2011,07,09,15,19,8.10
2011,07,09,15,20,6.40
2011,07,09,15,21,6.40
2011,07,09,15,22,6.40
2011,07,09,15,23,8.10
2011,07,09,15,24,4.80
2011,07,09,15,25,4.80
2011,07,09,15,26,6.40
2011,07,09,15,27,6.40
2011,07,09,15,28,8.10
2011,07,09,15,29,8.10
2011,07,09,15,30,11.30
2011,07,09,15,31,8.10
2011,07,09,15,32,9.60
2011,07,09,15,33,17.70
2011,07,09,15,34,17.70
2011,07,09,15,35,14.50
2011,07,09,15,36,8.10
2011,07,09,15,37,4.80
2011,07,09,15,38,8.10
2011,07,09,15,39,4.80
2011,07,09,15,40,8.10
2011,07,09,15,41,3.20
2011,07,09,15,42,6.40
2011,07,09,15,43,8.10
2011,07,09,15,44,8.10
2011,07,09,15,45,3.20
2011,07,09,15,46,3.20
2011,07,09,15,47,11.30
2011,07,09,15,48,8.10
2011,07,09,15,49,4.80
2011,07,09,15,50,11.30
2011,07,09,15,51,9.60
2011,07,09,15,52,4.80
2011,07,09,15,53,4.80
2011,07,09,15,54,6.40
2011,07,09,15,55,11.30
2011,07,09,15,56,11.30
2011,07,09,15,57,8.10
2011,07,09,15,58,6.40
2011,07,09,15,59,6.40
2011,07,09,16,00,9.60
2011,07,09,16,01,8.10
2011,07,09,16,02,4.80
2011,07,09,16,03,6.40
2011,07,09,16,04,9.60
2011,07,09,16,05,6.40
2011,07,09,16,06,14.50
2011,07,09,16,07,8.10
2011,07,09,16,08,9.60
2011,07,09,16,09,6.40
2011,07,09,16,10,9.60
2011,07,09,16,11,17.70
2011,07,09,16,12,17.70
2011,07,09,16,13,9.60
2011,07,09,16,14,11.30
2011,07,09,16,15,11.30
2011,07,09,16,16,11.30
2011,07,09,16,17,9.60
2011,07,09,16,18,11.30
2011,07,09,16,19,9.60
2011,07,09,16,20,9.60
2011,07,09,16,21,6.40
2011,07,09,16,22,4.80
2011,07,09,16,23,8.10
2011,07,09,16,24,8.10
2011,07,09,16,25,4.80
2011,07,09,16,26,9.60
2011,07,09,16,27,11.30
2011,07,09,16,28,8.10
2011,07,09,16,29,11.30
2011,07,09,16,30,9.60
2011,07,09,16,31,6.40
2011,07,09,16,32,8.10
2011,07,09,16,33,11.30
2011,07,09,16,34,8.10
2011,07,09,16,35,9.60
2011,07,09,16,36,8.10
2011,07,09,16,37,16.10
2011,07,09,16,38,8.10
2011,07,09,16,39,6.40
2011,07,09,16,40,9.60
2011,07,09,16,41,8.10
2011,07,09,16,42,8.10
2011,07,09,16,43,8.10
2011,07,09,16,44,3.20
2011,07,09,16,45,9.60
2011,07,09,16,46,8.10
2011,07,09,16,47,9.60
2011,07,09,16,48,9.60
2011,07,09,16,49,8.10
2011,07,09,16,50,8.10
2011,07,09,16,51,9.60
2011,07,09,16,52,8.10
2011,07,09,16,53,4.80
2011,07,09,16,54,3.20
2011,07,09,16,55,8.10
2011,07,09,16,56,9.60
2011,07,09,16,57,8.10
2011,07,09,16,58,11.30
2011,07,09,16,59,4.80
2011,07,09,17,00,11.30
2011,07,09,17,01,9.60
2011,07,09,17,02,12.90
2011,07,09,17,03,14.50
2011,07,09,17,04,9.60
2011,07,09,17,05,9.60
2011,07,09,17,06,6.40
2011,07,09,17,07,6.40
2011,07,09,17,08,6.40
2011,07,09,17,09,14.50
2011,07,09,17,10,8.10
2011,07,09,17,11,8.10
2011,07,09,17,12,6.40
2011,07,09,17,13,8.10
2011,07,09,17,14,6.40
2011,07,09,17,15,6.40
2011,07,09,17,16,14.50
2011,07,09,17,17,6.40
2011,07,09,17,18,6.40
2011,07,09,17,19,9.60
2011,07,09,17,20,8.10
2011,07,09,17,21,9.60
2011,07,09,17,22,14.50
2011,07,09,17,23,8.10
2011,07,09,17,24,11.30
2011,07,09,17,25,6.40
2011,07,09,17,26,11.30
2011,07,09,17,27,8.10
2011,07,09,17,28,6.40
2011,07,09,17,29,11.30
2011,07,09,17,30,16.10
2011,07,09,17,31,9.60
2011,07,09,17,32,8.10
2011,07,09,17,33,6.40
2011,07,09,17,34,3.20
2011,07,09,17,35,14.50
2011,07,09,17,36,9.60
2011,07,09,17,37,9.60
2011,07,09,17,38,3.20
2011,07,09,17,39,14.50
2011,07,09,17,40,8.10
2011,07,09,17,41,9.60
2011,07,09,17,42,8.10
2011,07,09,17,43,9.60
2011,07,09,17,44,11.30
2011,07,09,17,45,11.30
2011,07,09,17,46,9.60
2011,07,09,17,47,8.10
2011,07,09,17,48,4.80
2011,07,09,17,49,3.20
2011,07,09,17,50,1.60
2011,07,09,17,51,8.10
2011,07,09,17,52,8.10
2011,07,09,17,53,4.80
2011,07,09,17,54,9.60
2011,07,09,17,55,3.20
2011,07,09,17,56,8.10
2011,07,09,17,57,3.20
2011,07,09,17,58,6.40
2011,07,09,17,59,11.30
2011,07,09,18,00,9.60
2011,07,09,18,01,11.30
2011,07,09,18,02,6.40
2011,07,09,18,03,8.10
2011,07,09,18,04,6.40
2011,07,09,18,05,4.80
2011,07,09,18,06,6.40
2011,07,09,18,07,4.80
2011,07,09,18,08,6.40
2011,07,09,18,09,6.40
2011,07,09,18,10,6.40
2011,07,09,18,11,6.40
2011,07,09,18,12,4.80
2011,07,09,18,13,9.60
2011,07,09,18,14,6.40
2011,07,09,18,15,6.40
2011,07,09,18,16,6.40
2011,07,09,18,17,8.10
2011,07,09,18,18,14.50
2011,07,09,18,19,8.10
2011,07,09,18,20,14.50
2011,07,09,18,21,6.40
2011,07,09,18,22,6.40
2011,07,09,18,23,6.40
2011,07,09,18,24,6.40
2011,07,09,18,25,4.80
2011,07,09,18,26,8.10
2011,07,09,18,27,8.10
2011,07,09,18,28,8.10
2011,07,09,18,29,11.30
2011,07,09,18,30,8.10
2011,07,09,18,31,6.40
2011,07,09,18,32,3.20
2011,07,09,18,33,4.80
2011,07,09,18,34,9.60
2011,07,09,18,35,4.80
2011,07,09,18,36,3.20
2011,07,09,18,37,4.80
2011,07,09,18,38,6.40
2011,07,09,18,39,4.80
2011,07,09,18,40,3.20
2011,07,09,18,41,3.20
2011,07,09,18,42,3.20
2011,07,09,18,43,3.20
2011,07,09,18,44,6.40
2011,07,09,18,45,4.80
2011,07,09,18,46,11.30
2011,07,09,18,47,8.10
2011,07,09,18,48,6.40
2011,07,09,18,49,4.80
2011,07,09,18,50,4.80
2011,07,09,18,51,1.60
2011,07,09,18,52,6.40
2011,07,09,18,53,4.80
2011,07,09,18,54,6.40
2011,07,09,18,55,8.10
2011,07,09,18,56,3.20
2011,07,09,18,57,6.40
2011,07,09,18,58,8.10
2011,07,09,18,59,11.30
2011,07,09,19,00,9.60
2011,07,09,19,01,11.30
2011,07,09,19,02,9.60
2011,07,09,19,03,8.10
2011,07,09,19,04,3.20
2011,07,09,19,05,9.60
2011,07,09,19,06,6.40
2011,07,09,19,07,8.10
2011,07,09,19,08,4.80
2011,07,09,19,09,6.40
2011,07,09,19,10,4.80
2011,07,09,19,11,3.20
2011,07,09,19,12,4.80
2011,07,09,19,13,6.40
2011,07,09,19,14,6.40
2011,07,09,19,15,8.10
2011,07,09,19,16,9.60
2011,07,09,19,17,6.40
2011,07,09,19,18,6.40
2011,07,09,19,19,4.80
2011,07,09,19,20,8.10
2011,07,09,19,21,4.80
2011,07,09,19,22,6.40
2011,07,09,19,23,4.80
2011,07,09,19,24,4.80
2011,07,09,19,25,4.80
2011,07,09,19,26,6.40
2011,07,09,19,27,4.80
2011,07,09,19,28,6.40
2011,07,09,19,29,9.60
2011,07,09,19,30,6.40
2011,07,09,19,31,3.20
2011,07,09,19,32,4.80
2011,07,09,19,33,6.40
2011,07,09,19,34,6.40
2011,07,09,19,35,4.80
2011,07,09,19,36,1.60
2011,07,09,19,37,1.60
2011,07,09,19,38,4.80
2011,07,09,19,39,9.60
2011,07,09,19,40,6.40
2011,07,09,19,41,9.60
2011,07,09,19,42,9.60
2011,07,09,19,43,8.10
2011,07,09,19,44,11.30
2011,07,09,19,45,8.10
2011,07,09,19,46,6.40
2011,07,09,19,47,8.10
2011,07,09,19,48,6.40
2011,07,09,19,49,6.40
2011,07,09,19,50,4.80
2011,07,09,19,51,8.10
2011,07,09,19,52,6.40
2011,07,09,19,53,3.20
2011,07,09,19,54,4.80
2011,07,09,19,55,6.40
2011,07,09,19,56,4.80
2011,07,09,19,57,6.40
2011,07,09,19,58,4.80
2011,07,09,19,59,3.20
2011,07,09,20,00,6.40
2011,07,09,20,01,4.80
2011,07,09,20,02,6.40
2011,07,09,20,03,8.10
2011,07,09,20,04,9.60
2011,07,09,20,05,9.60
2011,07,09,20,06,6.40
2011,07,09,20,07,8.10
2011,07,09,20,08,8.10
2011,07,09,20,09,9.60
2011,07,09,20,10,8.10
2011,07,09,20,11,6.40
2011,07,09,20,12,8.10
2011,07,09,20,13,4.80
2011,07,09,20,14,4.80
2011,07,09,20,15,6.40
2011,07,09,20,16,6.40
2011,07,09,20,17,9.60
2011,07,09,20,18,6.40
2011,07,09,20,19,9.60
2011,07,09,20,20,11.30
2011,07,09,20,21,4.80
2011,07,09,20,22,4.80
2011,07,09,20,23,6.40
2011,07,09,20,24,3.20
2011,07,09,20,25,6.40
2011,07,09,20,26,8.10
2011,07,09,20,27,1.60
2011,07,09,20,28,4.80
2011,07,09,20,29,3.20
2011,07,09,20,30,4.80
2011,07,09,20,31,3.20
2011,07,09,20,32,1.60
2011,07,09,20,33,3.20
2011,07,09,20,34,1.60
2011,07,09,20,35,4.80
2011,07,09,20,36,8.10
2011,07,09,20,37,4.80
2011,07,09,20,38,3.20
2011,07,09,20,39,4.80
2011,07,09,20,40,6.40
2011,07,09,20,41,6.40
2011,07,09,20,42,6.40
2011,07,09,20,43,4.80
2011,07,09,20,44,3.20
2011,07,09,20,45,1.60
2011,07,09,20,46,3.20
2011,07,09,20,47,4.80
2011,07,09,20,48,4.80
2011,07,09,20,49,4.80
2011,07,09,20,50,3.20
2011,07,09,20,51,3.20
2011,07,09,20,52,3.20
2011,07,09,20,53,3.20
2011,07,09,20,54,3.20
2011,07,09,20,55,3.20
2011,07,09,20,56,3.20
2011,07,09,20,57,3.20
2011,07,09,20,58,1.60
2011,07,09,20,59,3.20
2011,07,09,21,00,3.20
2011,07,09,21,01,1.60
2011,07,09,21,02,1.60
2011,07,09,21,03,1.60
2011,07,09,21,05,1.60
2011,07,09,21,06,1.60
2011,07,09,21,07,1.60
2011,07,09,21,08,3.20
2011,07,09,21,12,1.60
2011,07,09,21,13,1.60
2011,07,09,21,15,3.20
2011,07,09,21,16,1.60
2011,07,09,21,17,3.20
2011,07,09,21,18,3.20
2011,07,09,21,19,3.20
2011,07,09,21,20,3.20
2011,07,09,21,21,1.60
2011,07,09,21,22,1.60
2011,07,09,21,27,1.60
2011,07,09,21,28,1.60
2011,07,09,21,30,1.60
2011,07,09,21,31,1.60
2011,07,09,21,32,1.60
2011,07,09,21,33,3.20
2011,07,09,21,34,1.60
2011,07,09,21,35,3.20
2011,07,09,21,36,3.20
2011,07,09,21,37,1.60
2011,07,09,21,38,1.60
2011,07,09,21,39,1.60
2011,07,09,21,41,1.60
2011,07,09,21,42,1.60
2011,07,09,21,43,1.60
2011,07,09,21,44,1.60
2011,07,09,21,46,1.60
2011,07,09,21,48,1.60
2011,07,09,21,49,1.60
2011,07,09,21,52,1.60
2011,07,09,21,53,1.60
2011,07,09,21,55,1.60
2011,07,09,21,58,1.60
2011,07,09,21,59,3.20
2011,07,09,22,00,6.40
2011,07,09,22,01,3.20
2011,07,09,22,02,1.60
2011,07,09,22,08,1.60
2011,07,09,23,27,1.60
2011,07,09,23,28,3.20
2011,07,09,23,29,1.60
2011,07,09,23,31,1.60
